| time (UTC) | temp F | wind direction | speed MPH | gust MPH | rain 1hr in | rain 24hr in | rain mn in | humidity % | barometer mb |
| 20260831184507 | 61 | 314 | 1.0 | 2.0 | 0.00 | 0.00 | 0.00 | 34 | 1015.8 |
| 20260831183007 | 61 | 315 | 1.0 | 2.0 | 0.00 | 0.00 | 0.00 | 34 | 1015.3 |
| 20260831181507 | 62 | 314 | 1.0 | 2.0 | 0.00 | 0.00 | 0.00 | 31 | 1015.5 |
| 20260831180008 | 63 | 315 | 0.0 | 2.0 | 0.00 | 0.00 | 0.00 | 31 | 1015.4 |
| 20260831174507 | 64 | 315 | 0.0 | 2.0 | 0.00 | 0.00 | 0.00 | 31 | 1015.0 |
| 20260831173007 | 64 | 327 | 1.0 | 4.0 | 0.00 | 0.00 | 0.00 | 29 | 1015.1 |
| 20260831171507 | 65 | 342 | 1.0 | 4.0 | 0.00 | 0.00 | 0.00 | 28 | 1015.1 |
| 20260831170007 | 66 | 264 | 3.0 | 10.0 | 0.00 | 0.00 | 0.00 | 28 | 1015.1 |
| 20260831163007 | 68 | 262 | 3.0 | 8.0 | 0.00 | 0.00 | 0.00 | 27 | 1015.2 |
| 20260831160007 | 70 | 308 | 3.0 | 9.0 | 0.00 | 0.00 | 0.00 | 25 | 1015.3 |
| 20260831154507 | 69 | 319 | 4.0 | 9.0 | 0.00 | 0.00 | 0.00 | 27 | 1015.2 |
| 20260831153006 | 68 | 301 | 5.0 | 11.0 | 0.00 | 0.00 | 0.00 | 26 | 1015.2 |
| 20260831151507 | 69 | 263 | 5.0 | 14.0 | 0.00 | 0.00 | 0.00 | 27 | 1015.3 |
| 20260831150007 | 69 | 308 | 5.0 | 15.0 | 0.00 | 0.00 | 0.00 | 29 | 1015.5 |
| 20260831143006 | 72 | 324 | 6.0 | 14.0 | 0.00 | 0.00 | 0.00 | 24 | 1015.3 |
| 20260831140006 | 70 | 311 | 5.0 | 11.0 | 0.00 | 0.00 | 0.00 | 31 | 1015.2 |
| 20260831134506 | 71 | 275 | 4.0 | 8.0 | 0.00 | 0.00 | 0.00 | 26 | 1015.1 |
| 20260831133007 | 70 | 277 | 5.0 | 11.0 | 0.00 | 0.00 | 0.00 | 31 | 1015.1 |
| 20260831131506 | 69 | 331 | 5.0 | 15.0 | 0.00 | 0.00 | 0.00 | 32 | 1015.1 |
| 20260831130007 | 70 | 281 | 6.0 | 15.0 | 0.00 | 0.00 | 0.00 | 32 | 1014.9 |
| 20260831124507 | 72 | 284 | 5.0 | 10.0 | 0.00 | 0.00 | 0.00 | 27 | 1015.1 |
| 20260831121506 | 70 | 322 | 4.0 | 11.0 | 0.00 | 0.00 | 0.00 | 32 | 1015.2 |
| 20260831120006 | 70 | 255 | 7.0 | 13.0 | 0.00 | 0.00 | 0.00 | 33 | 1015.2 |
| 20260831114507 | 68 | 296 | 6.0 | 15.0 | 0.00 | 0.00 | 0.00 | 34 | 1015.3 |
| 20260831113006 | 67 | 253 | 7.0 | 14.0 | 0.00 | 0.00 | 0.00 | 33 | 1015.5 |
| 20260831111507 | 70 | 220 | 5.0 | 13.0 | 0.00 | 0.00 | 0.00 | 33 | 1015.1 |
| 20260831110006 | 68 | 133 | 4.0 | 10.0 | 0.00 | 0.00 | 0.00 | 33 | 1015.3 |
| 20260831104506 | 68 | 236 | 7.0 | 16.0 | 0.00 | 0.00 | 0.00 | 33 | 1015.2 |
| 20260831103006 | 67 | 265 | 6.0 | 13.0 | 0.00 | 0.00 | 0.00 | 33 | 1015.2 |
| 20260831100006 | 67 | 254 | 5.0 | 13.0 | 0.00 | 0.00 | 0.00 | 33 | 1015.2 |
| 20260831094506 | 66 | 309 | 5.0 | 10.0 | 0.00 | 0.00 | 0.00 | 35 | 1015.4 |
| 20260831093006 | 67 | 288 | 5.0 | 11.0 | 0.00 | 0.00 | 0.00 | 36 | 1015.5 |
| 20260831091506 | 67 | 310 | 6.0 | 11.0 | 0.00 | 0.00 | 0.00 | 36 | 1015.3 |
| 20260831090006 | 66 | 240 | 6.0 | 12.0 | 0.00 | 0.00 | 0.00 | 35 | 1014.8 |
| 20260831083006 | 65 | 251 | 6.0 | 12.0 | 0.00 | 0.00 | 0.00 | 35 | 1014.4 |
| 20260831081506 | 65 | 296 | 5.0 | 9.0 | 0.00 | 0.00 | 0.00 | 36 | 1014.6 |
| 20260831080005 | 65 | 239 | 2.0 | 5.0 | 0.00 | 0.00 | 0.00 | 36 | 1014.3 |
| 20260831074506 | 64 | 294 | 3.0 | 8.0 | 0.00 | 0.00 | 0.00 | 38 | 1014.5 |
| 20260831073005 | 63 | 255 | 3.0 | 5.0 | 0.00 | 0.00 | 0.00 | 39 | 1014.4 |
| 20260831071506 | 62 | 162 | 3.0 | 6.0 | 0.00 | 0.00 | 0.00 | 37 | 1014.0 |
| 20260831070006 | 62 | 270 | 2.0 | 4.0 | 0.00 | 0.00 | 0.00 | 37 | 1014.1 |
| 20260831061506 | 62 | 270 | 1.0 | 3.0 | 0.00 | 0.00 | 0.00 | 35 | 1014.1 |
| 20260831060005 | 63 | 270 | 2.0 | 4.0 | 0.00 | 0.00 | 0.00 | 35 | 1014.0 |
| 20260831054505 | 63 | 198 | 2.0 | 4.0 | 0.00 | 0.00 | 0.00 | 34 | 1013.9 |
| 20260831051505 | 62 | 253 | 2.0 | 4.0 | 0.00 | 0.00 | 0.00 | 34 | 1013.9 |
| 20260831050006 | 62 | 315 | 1.0 | 2.0 | 0.00 | 0.00 | 0.00 | 34 | 1014.1 |
| 20260831044505 | 62 | 315 | 0.0 | 2.0 | 0.00 | 0.00 | 0.00 | 35 | 1014.1 |
| 20260831043005 | 62 | 315 | 0.0 | 2.0 | 0.00 | 0.00 | 0.00 | 35 | 1014.2 |
| 20260831041505 | 62 | 314 | 0.0 | 1.0 | 0.00 | 0.00 | 0.00 | 34 | 1014.3 |
| 20260831040005 | 62 | 314 | 0.0 | 1.0 | 0.00 | 0.00 | 0.00 | 34 | 1014.3 |
| 20260831034506 | 62 | 315 | 0.0 | 1.0 | 0.00 | 0.00 | 0.00 | 34 | 1014.5 |
| 20260831033005 | 61 | 314 | 0.0 | 2.0 | 0.00 | 0.00 | 0.00 | 37 | 1014.4 |
| 20260831031505 | 60 | 314 | 0.0 | 1.0 | 0.00 | 0.00 | 0.00 | 37 | 1014.4 |
| 20260831030005 | 60 | 314 | 0.0 | 1.0 | 0.00 | 0.00 | 0.00 | 38 | 1014.7 |
| 20260831024505 | 60 | 314 | 0.0 | 1.0 | 0.00 | 0.00 | 0.00 | 37 | 1014.7 |
| 20260831023005 | 61 | 314 | 0.0 | 1.0 | 0.00 | 0.00 | 0.00 | 38 | 1014.6 |
| 20260831021505 | 61 | 0 | 0.0 | 0.0 | 0.00 | 0.00 | 0.00 | 38 | 1014.7 |
| 20260831020005 | 61 | 314 | 0.0 | 1.0 | 0.00 | 0.00 | 0.00 | 38 | 1014.8 |
| 20260831014504 | 61 | 314 | 0.0 | 1.0 | 0.00 | 0.00 | 0.00 | 38 | 1015.0 |
| 20260831011504 | 61 | 314 | 0.0 | 1.0 | 0.00 | 0.00 | 0.00 | 37 | 1015.0 |
| 20260831010005 | 61 | 314 | 0.0 | 2.0 | 0.00 | 0.00 | 0.00 | 37 | 1015.1 |
| 20260831004505 | 61 | 314 | 1.0 | 4.0 | 0.00 | 0.00 | 0.00 | 38 | 1015.4 |
| 20260831003005 | 61 | 314 | 0.0 | 1.0 | 0.00 | 0.00 | 0.00 | 37 | 1015.1 |
| 20260831000005 | 61 | 314 | 0.0 | 1.0 | 0.00 | 0.00 | 0.00 | 36 | 1015.4 |
| 20260830234505 | 62 | 314 | 0.0 | 1.0 | 0.00 | 0.00 | 0.00 | 33 | 1015.3 |
| 20260830231504 | 62 | 314 | 0.0 | 1.0 | 0.00 | 0.00 | 0.00 | 33 | 1015.6 |
| 20260830230007 | 63 | 314 | 0.0 | 1.0 | 0.00 | 0.00 | 0.00 | 32 | 1015.4 |
| 20260830224507 | 64 | 315 | 0.0 | 2.0 | 0.00 | 0.00 | 0.00 | 32 | 1015.5 |
| 20260830223008 | 64 | 314 | 0.0 | 2.0 | 0.00 | 0.00 | 0.00 | 31 | 1015.6 |
| 20260830220011 | 65 | 315 | 0.0 | 2.0 | 0.00 | 0.00 | 0.00 | 31 | 1015.6 |
| 20260830214508 | 65 | 314 | 1.0 | 2.0 | 0.00 | 0.00 | 0.00 | 31 | 1015.7 |
| 20260830213007 | 64 | 314 | 0.0 | 2.0 | 0.00 | 0.00 | 0.00 | 31 | 1015.4 |
| 20260830211508 | 65 | 315 | 0.0 | 1.0 | 0.00 | 0.00 | 0.00 | 31 | 1015.5 |
| 20260830210007 | 65 | 315 | 0.0 | 2.0 | 0.00 | 0.00 | 0.00 | 31 | 1015.6 |
| 20260830203007 | 65 | 315 | 0.0 | 2.0 | 0.00 | 0.00 | 0.00 | 31 | 1015.6 |
| 20260830201507 | 65 | 315 | 0.0 | 1.0 | 0.00 | 0.00 | 0.00 | 31 | 1015.5 |
| 20260830200007 | 65 | 314 | 0.0 | 2.0 | 0.00 | 0.00 | 0.00 | 32 | 1015.5 |
| 20260830194507 | 65 | 315 | 0.0 | 2.0 | 0.00 | 0.00 | 0.00 | 32 | 1015.5 |
| 20260830193008 | 65 | 314 | 1.0 | 3.0 | 0.00 | 0.00 | 0.00 | 32 | 1015.5 |
| 20260830191507 | 66 | 315 | 0.0 | 2.0 | 0.00 | 0.00 | 0.00 | 32 | 1015.4 |
| 20260830190007 | 66 | 314 | 1.0 | 3.0 | 0.00 | 0.00 | 0.00 | 31 | 1015.4 |